Simultaneous Nadir Overpasses (SNOs) Predictions

Prediction of SNOs between GOES-15 and TERRA Satellite Orbit:

Table of predicted SNOs for the next 14.0 days since TLE Epoch: 6/22/2024
Index Date Time (GOES-15) GOES-15 Lat,Lon TERRA Lat,Lon Distance(km) Time Diff (sec)
1 06/23/2024 17:23:15 0.16, 61.27 1.01, 65.36 464.34 80
2 06/24/2024 05:45:48 -0.13, 61.23 0.04, 60.53 80.50 80
3 06/26/2024 05:25:42 -0.16, 61.22 -0.86, 64.73 397.59 80
4 06/26/2024 17:48:25 0.13, 61.27 -0.15, 59.85 160.16 80
5 06/28/2024 17:28:18 0.14, 61.26 0.72, 64.06 318.19 80
6 06/29/2024 05:50:52 -0.11, 61.21 0.33, 59.23 226.34 80
7 07/01/2024 05:30:46 -0.13, 61.21 -0.62, 63.42 251.52 80
8 07/01/2024 17:53:27 0.09, 61.26 -0.49, 58.57 306.52 80
9 07/03/2024 17:33:20 0.11, 61.27 0.43, 62.77 170.83 80
10 07/04/2024 05:55:54 -0.07, 61.22 0.62, 57.94 373.75 80
